This demonstration page uses our WeatherBlox Daily Observations layout. Learn more.

Left ArrowRight Arrow

Hourly Observations for January 1, 2017

Temp ( °F °C ) Dew Point ( °F °C ) Humidity (%) Winds ( mph kmh ) Pressure ( in mb ) Visibility ( mi km ) Precip ( " mm )
12:59 am 00:59 Cloudy 49 9.4 24 -4.4 38 38 SW 14 22 30.08 1019 10 16 0.00 0.00
1:59 am 01:59 Cloudy with Light Rain 49 9.4 27 -2.8 43 43 SW 13 20 30.09 1019 10 16 0.00 0.03
2:59 am 02:59 Cloudy 49 9.4 26 -3.3 41 41 WSW 13 20 30.12 1020 10 16 0.00 0.03
3:59 am 03:59 Cloudy 49 9.4 28 -2.2 44 44 SW 9 15 30.11 1020 10 16 0.00 0.00
4:59 am 04:59 Mostly Cloudy 49 9.4 29 -1.7 46 46 WSW 8 13 30.13 1020 10 16 0.00 0.00
5:59 am 05:59 Partly Cloudy 49 9.4 29 -1.7 46 46 WSW 7 11 30.14 1021 10 16 0.00 0.00
6:59 am 06:59 Cloudy 49 9.4 29 -1.7 46 46 SW 9 15 30.16 1021 10 16 0.00 0.00
7:59 am 07:59 Mostly Cloudy 49 9.4 30 -1.1 48 48 SW 9 15 30.19 1022 10 16 0.00 0.00
8:59 am 08:59 Cloudy 48 8.9 33 0.6 56 56 SW 15 24 30.21 1023 10 16 0.00 0.03
9:59 am 09:59 Cloudy with Light Rain 47 8.3 40 4.4 77 77 WSW 7 11 30.24 1024 6 10 0.01 0.25
10:59 am 10:59 Cloudy 47 8.3 42 5.6 83 83 SW 9 15 30.24 1024 10 16 0.00 0.03
11:59 am 11:59 Mostly Cloudy 50 10 43 6.1 77 77 WSW 10 17 30.23 1024 10 16 0.00 0.00
12:59 pm 12:59 Mostly Cloudy 52 11.1 42 5.6 69 69 WSW 6 9 30.21 1023 10 16 0.00 0.00
1:59 pm 13:59 Mostly Cloudy 54 12.2 41 5 62 62 W 3 6 30.21 1023 10 16 0.00 0.00
2:59 pm 14:59 Mostly Cloudy 56 13.3 41 5 57 57 Calm 30.23 1024 10 16 0.00 0.00
3:59 pm 15:59 Mostly Cloudy 53 11.7 41 5 64 64 ENE 6 9 30.26 1025 10 16 0.00 0.00
4:59 pm 16:59 Mostly Cloudy 50 10 40 4.4 68 68 ENE 7 11 30.29 1026 10 16 0.00 0.00
5:59 pm 17:59 Mostly Cloudy 47 8.3 40 4.4 77 77 Calm 30.32 1027 10 16 0.00 0.00
6:59 pm 18:59 Cloudy 47 8.3 27 -2.8 46 46 SSW 10 17 30.13 1020 10 16 0.00 0.00
7:59 pm 19:59 Mostly Cloudy 48 8.9 41 5 77 77 E 5 7 30.35 1028 10 16 0.00 0.00
8:59 pm 20:59 Cloudy 50 10 39 3.9 66 66 ESE 7 11 30.35 1028 10 16 0.00 0.00
9:59 pm 21:59 Cloudy 50 10 41 5 71 71 E 9 15 30.34 1028 10 16 0.00 0.00
10:59 pm 22:59 Cloudy 50 10 42 5.6 74 74 S 5 7 30.37 1028 10 16 0.00 0.00
11:59 pm 23:59 Cloudy 50 10 43 6.1 77 77 ESE 5 7 30.34 1028 10 16 0.00 0.00

Powered by AerisWeather